This is the latest recevied weather packets stored in our database for station/object WE8L. If no packets are shown the sender has not sent any weather packets the latest 10 day(s).
| Time | Temp. | Humidity | Pressure | Rain* | Wind** | Luminosity | Snow |
|---|---|---|---|---|---|---|---|
| 1777724179 | 4.44° C | 87% | 1020.5 hPa | 0 mm | - | 37 W/m² | - |
| 1777723876 | 4.44° C | 89% | 1020.7 hPa | 0 mm | - | 31 W/m² | - |
| 1777723572 | 4.44° C | 90% | 1020.6 hPa | 0 mm | - | 28 W/m² | - |
| 1777723269 | 3.89° C | 90% | 1020.6 hPa | 0 mm | - | 24 W/m² | - |
| 1777722967 | 3.89° C | 90% | 1020.5 hPa | 0 mm | - | 27 W/m² | - |
| 1777722662 | 3.89° C | 90% | 1020.6 hPa | 0 mm | - | 28 W/m² | - |
| 1777722359 | 3.89° C | 90% | 1020.4 hPa | 0 mm | - | 20 W/m² | - |
| 1777722055 | 3.89° C | 90% | 1020.4 hPa | 0 mm | - | 19 W/m² | - |
| 1777721753 | 3.33° C | 89% | 1020.3 hPa | 0 mm | - | 19 W/m² | - |
| 1777721452 | 3.33° C | 89% | 1020.3 hPa | 0 mm | - | 16 W/m² | - |
| 1777721149 | 3.33° C | 89% | 1020.2 hPa | 0 mm | - | 15 W/m² | - |
| 1777720847 | 3.33° C | 89% | 1020.2 hPa | 0 mm | - | 13 W/m² | - |
| 1777720544 | 3.33° C | 88% | 1020.2 hPa | 0 mm | - | 12 W/m² | - |
| 1777720241 | 3.33° C | 88% | 1020 hPa | 0 mm | - | 10 W/m² | - |
| 1777719939 | 3.33° C | 88% | 1019.9 hPa | 0 mm | - | 9 W/m² | - |
| 1777719636 | 3.89° C | 88% | 1020 hPa | 0 mm | - | 7 W/m² | - |
| 1777719333 | 3.89° C | 88% | 1019.7 hPa | 0 mm | - | 5 W/m² | - |
| 1777719031 | 3.89° C | 88% | 1019.6 hPa | 0 mm | - | 4 W/m² | - |
| 1777718727 | 3.89° C | 88% | 1019.6 hPa | 0 mm | - | 3 W/m² | - |
| 1777718425 | 3.89° C | 89% | 1019.9 hPa | 0 mm | - | 2 W/m² | - |
| 1777718123 | 3.89° C | 89% | 1019.9 hPa | 0 mm | - | 1 W/m² | - |
| 1777717821 | 3.89° C | 90% | 1019.8 hPa | 0 mm | - | 0 W/m² | - |
| 1777717516 | 3.89° C | 90% | 1019.9 hPa | 0 mm | - | 0 W/m² | - |
| 1777717214 | 3.89° C | 90% | 1020.1 hPa | 0 mm | - | 0 W/m² | - |
| 1777716912 | 3.89° C | 90% | 1019.9 hPa | 0 mm | - | 0 W/m² | - |
* Rain latest hour (hover to see other rain measurements)
** Current wind speed in m/s (hover to see current wind gust speed)